Probability
0 0 0 0 0 0 0 0 0 0 0 0 0 0 0 0 0 0 0 0 0 0 0 0 0 0 0 0 0 0 0 0 0 0 0 0 0 0 0 0 0 0 0 0 0 0 0 0 0
0 0 0 0 0 0 0 0 0 0 0 0 0 0 0 0 0 0 0 0 0 0 0 0 0 0 0 0 0 0 0 0 0 0 0 0 0 0 0 0 0 0 0 0 0 0 0 0 0
0 0 0 0 0 0 0 0 0 0 0 0 0 0 0 0 0 0 0 0 0 0 0 0 0 0 0 0 0 0 0 0 0 0 0 1 1 1 1 0 0 0 0 0 0 0 0 0 0
0 0 0 0 0 0 0 0 0 0 0 0 0 0 0 0 0 0 0 0 0 0 0 2 3 2 0 0 0 0 0 0 0 1 2 3 3 3 2 1 0 0 0 0 0 0 0 0 0
0 0 0 0 0 0 0 0 0 0 0 0 0 0 0 0 0 0 0 0 0 0 2 9 13 7 1 1 2 1 0 0 0 2 3 5 5 4 4 3 1 0 1 1 2 1 1 0 0
0 0 0 0 0 0 0 0 0 0 0 0 0 0 0 0 0 0 0 0 0 3 13 30 32 16 4 3 4 4 1 0 0 1 2 4 4 4 5 6 5 4 5 6 6 3 1 0 0
0 0 0 0 0 0 0 0 0 0 0 0 0 0 0 0 0 0 0 0 0 6 25 45 40 19 8 6 6 6 3 0 0 0 0 1 1 2 4 9 15 18 14 13 14 8 3 1 0
0 0 0 0 0 0 0 0 0 0 0 0 0 0 0 0 0 0 0 0 0 5 19 30 24 13 7 5 5 5 3 0 0 0 0 0 0 1 2 7 19 27 27 27 31 26 18 10 6
0 0 0 0 0 0 0 0 0 0 0 0 0 0 0 0 0 0 0 0 0 1 5 7 6 4 3 2 2 2 1 0 0 0 0 0 0 0 0 3 9 20 35 53 63 60 49 33 19
0 0 0 0 0 0 0 0 0 0 0 0 0 0 0 0 0 0 0 0 0 0 0 0 1 1 0 0 0 0 0 0 0 0 0 0 0 0 0 0 1 11 41 75 90 87 74 45 20
0 0 0 0 0 0 0 0 0 0 0 0 0 0 0 0 0 0 0 0 0 0 0 0 0 0 0 0 0 0 0 0 0 0 0 0 0 0 0 0 1 12 40 71 82 79 62 30 9
0 0 0 0 0 0 0 0 0 0 0 0 0 0 0 0 0 0 0 0 0 0 0 0 0 0 0 0 0 0 0 0 0 0 0 0 0 0 0 0 4 19 36 44 45 44 33 13 1
0 0 0 0 0 0 0 0 0 0 0 0 0 0 0 0 0 0 0 0 0 0 0 0 0 0 0 0 0 0 0 0 0 0 0 0 0 0 0 0 8 26 36 27 15 16 17 9 2
0 0 0 0 0 0 0 0 0 0 0 0 0 0 0 0 0 0 0 0 0 0 0 0 0 0 0 0 0 0 0 0 0 0 0 0 0 0 0 0 6 23 36 29 12 7 11 9 3
0 0 0 0 0 0 0 0 0 0 0 0 0 0 0 0 0 0 0 0 0 0 0 0 0 0 0 0 0 0 0 0 0 0 0 0 0 0 0 0 2 10 24 28 16 5 7 9 7
0 0 0 0 0 0 0 0 0 0 0 0 0 0 0 0 0 0 0 0 0 0 0 0 0 0 0 0 0 0 0 0 0 0 0 0 0 0 0 0 0 2 11 18 12 4 5 10 12
0 0 0 0 0 0 0 0 0 0 0 0 0 0 0 0 0 0 0 0 0 0 0 0 0 0 0 0 0 0 0 0 0 0 0 0 0 0 0 0 0 0 3 5 4 1 3 9 14
0 0 0 0 0 0 0 0 0 0 0 0 0 0 0 0 0 0 0 0 0 0 0 0 0 0 0 0 0 0 0 0 0 0 0 0 0 0 0 0 0 0 0 0 0 0 1 4 9
0 0 0 0 0 0 0 0 0 0 0 0 0 0 0 0 0 0 0 0 0 0 0 0 0 0 0 0 0 0 0 0 0 0 0 0 0 0 0 0 0 0 0 0 0 0 0 1 3
0 0 0 0 0 0 0 0 0 0 0 0 0 0 0 0 0 0 0 0 0 0 0 0 0 0 0 0 0 0 0 0 0 0 0 0 0 0 0 0 0 0 0 0 0 0 0 0 0
0 0 0 0 0 0 0 0 0 0 0 0 0 0 0 0 0 0 0 0 0 0 0 0 0 0 0 0 0 0 0 0 0 0 0 0 0 0 0 0 0 0 0 0 0 0 0 0 0
0 0 0 0 0 0 0 0 0 0 0 0 0 0 0 0 0 0 0 0 0 0 0 0 0 0 0 0 0 0 0 0 0 0 0 0 0 0 0 0 0 0 0 0 0 0 0 0 0
0 0 0 0 0 0 0 0 0 0 0 0 0 0 0 0 0 0 0 0 0 0 0 0 0 0 0 0 0 0 0 0 0 0 0 0 0 0 0 0 0 0 0 0 0 0 0 0 0
0 0 0 0 0 0 0 0 0 0 0 0 0 0 0 0 0 0 0 0 0 0 0 0 0 0 0 0 0 0 0 0 0 0 0 0 0 0 0 0 0 0 0 0 0 0 0 0 0
0 0 0 0 0 0 0 0 0 0 0 0 0 0 0 0 0 0 0 0 0 0 0 0 0 0 0 0 0 0 0 0 0 0 0 0 0 0 0 0 0 0 0 0 0 0 0 0 0
0 0 0 0 0 0 0 0 0 0 0 0 0 0 0 0 0 0 0 0 0 0 0 0 0 0 0 0 0 0 0 0 0 0 0 0 0 0 0 0 0 0 0 0 0 0 0 0 0
0 0 0 0 0 0 0 0 0 0 0 0 0 0 0 0 0 0 0 0 0 0 0 0 0 0 0 0 0 0 0 0 0 0 0 0 0 0 0 0 0 0 0 0 0 0 0 0 0
0 0 0 0 0 0 0 0 0 0 0 0 0 0 0 0 0 0 0 0 0 0 0 0 0 0 0 0 0 0 0 0 0 0 0 0 0 0 0 0 0 0 0 0 0 0 0 0 0
0 0 0 0 0 0 0 0 0 0 0 0 0 0 0 0 0 0 0 0 0 0 0 0 0 0 0 0 0 0 0 0 0 0 0 0 0 0 0 0 0 0 0 0 0 0 0 0 0
0 0 0 0 0 0 0 0 0 0 0 0 0 0 0 0 0 0 0 0 0 0 0 0 0 0 0 0 0 0 0 0 0 0 0 0 0 0 0 0 0 0 0 0 0 0 0 0 0
Wind_Speed
5 2 3 3 4 2 2 3 1 1 0 1 0 3 3 2 2 2 3 3 5 6 7 9 13 13 13 12 11 10 8 9 8 6 5 6 7 7 7 7 8 9 9 9 8 7 7 6 5
3 2 4 3 3 1 3 3 2 3 3 1 1 3 3 1 1 1 1 5 7 8 7 7 12 13 13 13 12 11 9 8 8 6 5 4 5 6 6 7 9 9 10 10 9 8 8 7 7
2 2 3 2 2 3 3 3 2 2 2 1 1 3 3 2 3 1 4 6 8 7 7 10 15 15 15 15 14 12 11 9 9 8 6 5 5 6 6 7 8 9 10 10 10 10 9 8 7
2 3 3 1 3 3 4 5 5 3 1 1 3 4 3 1 2 4 3 3 6 6 6 10 16 17 16 16 16 14 13 11 10 9 8 6 5 5 5 7 7 8 9 10 11 11 10 9 8
4 3 2 1 4 4 4 3 3 2 0 1 2 3 2 3 6 6 5 1 6 6 5 8 16 17 17 16 16 15 14 12 11 10 9 8 6 5 4 5 7 8 10 11 12 11 10 9 8
3 2 2 2 4 4 4 4 2 2 1 1 2 4 1 5 7 7 8 5 2 7 7 8 14 16 16 16 15 14 14 14 13 11 10 8 7 6 6 5 7 9 10 12 13 12 11 10 9
3 3 3 3 4 4 4 3 2 4 2 0 2 4 1 5 7 5 7 9 6 3 3 4 6 9 12 13 13 13 13 13 13 12 11 9 8 8 6 5 7 9 10 11 13 13 12 11 10
4 3 2 3 3 4 2 1 2 3 2 2 3 2 1 4 7 4 8 9 9 7 4 1 1 3 5 7 9 10 10 11 10 8 7 6 5 4 3 4 6 8 10 11 12 13 13 12 10
4 3 3 4 3 3 2 2 3 1 4 3 2 1 1 4 4 7 7 8 8 8 6 3 3 4 3 4 5 7 7 8 7 6 6 5 3 3 3 5 8 8 10 11 12 13 13 11 9
3 3 6 4 2 2 1 1 3 1 2 2 1 1 2 3 5 6 6 7 7 6 7 7 3 3 4 3 3 3 3 4 4 4 4 3 3 4 5 6 9 10 9 10 11 12 12 8 4
4 5 4 4 2 2 2 1 2 1 3 3 3 2 1 3 5 7 7 4 4 4 5 7 7 2 3 3 3 2 2 2 3 4 4 4 3 3 4 3 4 4 5 4 5 6 5 5 4
3 7 6 6 2 3 3 2 2 3 5 6 7 5 4 4 5 5 5 3 3 4 6 6 7 6 3 3 1 2 2 3 3 4 4 3 3 3 3 3 3 3 3 3 3 3 4 6 6
5 6 7 5 5 5 3 4 3 5 5 5 5 5 5 5 4 3 3 3 3 3 4 5 5 6 6 5 3 1 2 3 3 3 3 3 2 3 3 3 3 3 3 4 3 4 4 5 6
3 5 6 5 5 4 5 4 4 7 6 6 7 7 7 7 5 3 4 3 3 3 4 5 6 5 5 4 3 2 1 2 2 2 3 3 3 2 2 3 3 4 5 5 5 5 5 5 5
2 6 8 6 5 5 4 5 9 6 7 7 7 7 7 6 7 6 4 3 2 2 3 5 4 5 5 4 3 3 2 1 1 2 3 3 2 2 2 2 2 2 3 4 4 4 4 4 5
3 3 5 6 1 3 4 10 11 5 9 10 9 8 8 7 7 8 7 5 3 3 4 5 5 6 5 4 3 2 3 2 1 1 1 2 2 2 2 2 3 2 1 2 3 3 4 5 6
4 2 4 7 1 1 4 9 8 3 7 10 9 9 8 6 5 6 6 6 5 4 4 5 6 6 5 4 3 3 3 2 1 1 1 1 1 2 2 1 2 2 1 1 2 3 4 5 7
2 3 5 5 5 3 7 12 9 4 7 11 9 9 9 9 9 6 6 6 5 5 5 5 5 6 5 3 3 3 3 3 2 2 3 3 2 1 1 1 2 1 1 2 2 3 4 5 7
2 4 7 7 6 5 10 11 12 9 10 12 10 10 11 9 5 5 6 7 6 6 6 5 5 6 4 3 2 3 3 2 2 3 4 4 3 3 2 2 3 2 1 2 2 2 3 4 2
2 4 7 8 6 6 11 15 14 12 12 16 15 13 10 6 5 6 5 5 6 4 3 4 5 5 3 1 1 1 2 2 2 3 3 4 4 5 4 3 3 2 2 2 1 2 2 3 4
4 3 5 8 8 6 10 13 7 7 4 6 10 8 10 12 11 8 6 5 5 4 2 2 3 4 4 4 3 3 3 3 3 3 3 4 4 3 3 4 4 3 2 2 2 1 2 3 3
3 2 4 8 8 5 5 14 2 3 4 5 10 9 10 9 9 9 8 6 6 5 3 1 2 3 3 4 4 3 1 1 2 3 4 5 4 4 4 4 3 2 1 1 2 3 2 3 3
4 4 6 6 3 4 3 7 8 4 6 9 10 9 9 11 11 10 9 8 7 6 5 3 0 1 2 3 3 2 2 2 2 2 4 5 5 4 3 3 3 2 1 1 1 2 2 2 3
3 4 5 2 2 3 4 5 9 4 4 9 8 8 9 9 9 9 8 6 5 5 4 3 2 3 2 1 2 2 3 4 4 4 4 4 4 4 4 2 1 1 2 2 2 3 3 3 3
5 5 6 7 2 5 1 4 11 7 6 8 11 11 8 7 8 8 7 6 6 6 6 4 5 5 4 3 4 3 4 4 5 5 3 3 3 3 5 5 3 2 3 4 4 4 4 4 4
2 2 1 4 6 10 6 9 8 5 6 7 6 2 7 7 7 7 8 8 7 7 7 6 6 4 3 4 5 4 3 2 3 3 3 3 3 4 5 5 5 6 5 5 5 4 5 5 6
1 2 2 2 4 8 8 7 9 3 5 7 4 3 5 4 4 6 7 8 8 7 7 6 5 2 1 3 4 5 4 3 3 4 4 4 4 5 6 7 7 7 6 6 6 5 7 6 6
2 1 2 2 4 8 13 9 12 11 4 4 2 1 3 3 5 7 9 8 7 6 4 3 4 3 3 4 4 4 6 7 6 7 7 7 7 7 8 8 8 8 7 7 6 5 7 6 6
0 1 3 5 6 10 19 15 4 3 5 9 9 8 7 6 7 8 9 9 8 5 5 4 3 5 5 6 6 8 8 8 8 7 8 8 8 9 8 8 8 8 7 7 6 7 7 7 7
4 5 5 4 10 10 12 23 7 8 11 12 10 8 5 5 7 8 11 11 6 6 5 4 4 6 7 6 6 7 6 7 7 7 8 8 9 9 9 9 8 8 8 7 7 8 8 7 7
Wind_Direction
318 2 94 66 58 52 271 274 267 243 156 208 198 97 123 138 158 192 237 190 156 144 163 176 185 187 187 185 185 175 181 186 174 170 172 180 185 185 194 199 203 200 192 185 179 174 150 148 152
342 32 56 66 84 58 276 257 189 199 194 164 85 97 98 35 320 155 218 174 160 155 161 166 181 185 187 187 186 181 185 184 175 176 173 170 179 190 199 204 204 202 197 193 186 178 155 155 158
349 65 73 80 121 187 227 251 227 229 235 138 73 75 83 328 325 315 270 166 161 164 165 171 178 182 187 189 190 189 191 189 185 187 190 191 190 191 203 213 208 205 205 199 185 173 166 165 163
42 45 52 96 240 232 222 233 233 154 256 147 119 92 98 202 288 308 302 159 167 178 170 174 178 182 187 192 194 192 194 192 190 191 191 188 188 193 209 213 213 209 206 199 186 178 177 173 169
53 74 58 349 254 248 251 234 249 121 267 284 113 132 107 318 319 310 351 194 188 189 180 176 181 184 189 194 197 196 197 198 196 192 192 195 196 204 224 230 210 203 203 198 191 190 185 181 177
52 72 104 251 265 282 273 241 238 108 18 343 104 126 143 319 340 342 10 6 209 175 172 174 185 187 190 196 200 200 199 203 206 200 199 203 205 210 221 237 219 206 206 200 196 197 196 185 184
128 112 199 220 267 278 242 209 179 133 129 57 107 135 242 336 341 351 28 31 36 73 129 170 184 188 191 197 203 204 204 206 209 211 210 213 217 223 221 240 228 210 215 212 207 204 202 189 186
136 122 221 233 232 250 245 241 203 145 157 49 60 125 264 316 324 11 37 37 39 43 49 357 287 220 190 190 202 206 208 207 210 215 223 232 235 233 231 258 244 221 221 220 213 209 204 194 187
115 92 234 233 229 263 338 341 321 28 76 51 58 117 317 320 342 34 30 29 29 28 21 7 242 228 221 195 192 195 204 204 203 206 214 224 222 230 252 263 257 244 230 219 211 208 201 191 181
121 177 227 231 252 258 325 350 308 318 83 106 76 27 18 21 40 52 49 38 27 16 360 359 338 239 214 204 193 187 187 187 191 198 207 211 218 227 239 253 262 252 234 215 207 203 194 179 169
175 213 236 266 246 228 232 249 296 271 254 202 174 171 109 61 48 50 47 40 28 12 6 359 351 332 215 196 180 179 171 182 200 214 217 220 231 239 248 256 262 244 228 207 200 200 183 167 177
227 252 246 264 251 221 220 229 251 206 226 184 172 157 137 94 63 55 52 38 23 21 10 7 6 15 54 124 139 178 177 196 209 218 220 216 238 255 255 250 244 207 195 199 190 182 175 176 192
224 256 258 254 246 231 214 224 240 229 204 177 159 130 131 119 106 84 81 66 43 25 11 12 25 38 53 72 80 126 199 211 216 218 215 195 207 252 270 260 242 217 188 192 194 187 184 190 204
258 278 284 275 245 231 212 230 228 237 187 182 173 167 163 156 146 114 82 67 50 24 7 4 27 39 54 56 50 39 178 208 207 210 217 192 188 215 247 271 241 224 203 195 188 191 192 201 209
288 310 313 287 255 220 192 250 235 215 177 192 196 185 175 171 156 149 146 127 89 39 8 8 11 26 34 35 32 27 21 43 229 221 221 242 258 261 256 268 268 250 216 200 191 195 194 207 213
346 358 315 299 357 207 176 262 265 208 178 204 209 202 189 186 174 167 161 142 105 63 24 10 10 16 13 9 5 356 355 4 335 272 240 256 309 310 275 265 260 260 210 203 215 212 217 218 220
5 306 285 298 287 196 227 258 272 206 188 214 214 210 203 195 192 183 160 135 111 85 43 17 12 11 3 355 335 330 328 307 289 308 303 298 326 11 9 326 284 296 294 248 236 224 218 236 239
291 298 285 277 290 260 252 260 271 243 220 228 220 212 203 194 198 179 143 124 100 69 43 17 3 4 357 354 351 340 315 304 310 295 276 273 270 305 325 335 343 356 317 286 271 254 232 233 244
256 265 273 273 285 276 266 267 270 244 229 238 227 213 205 200 188 158 146 135 111 62 34 18 7 355 354 360 4 345 324 324 321 307 298 296 306 319 318 302 287 287 271 273 273 261 263 261 244
302 303 302 297 335 321 281 267 254 237 224 224 218 213 201 182 170 175 155 119 104 94 47 16 11 2 3 346 300 263 294 322 337 344 353 336 305 293 295 304 308 315 314 306 280 212 221 229 208
331 315 307 300 315 305 311 283 244 259 242 242 229 205 185 182 174 171 155 141 125 109 81 21 6 14 21 18 5 2 358 350 355 352 346 342 337 328 308 288 283 299 335 343 345 307 280 276 231
302 311 287 289 311 312 6 296 234 273 294 266 240 210 190 180 171 170 164 159 150 155 170 152 19 16 20 30 37 26 355 311 306 306 316 323 341 351 350 340 328 301 330 339 331 333 308 296 292
266 287 275 270 259 289 246 252 290 321 293 276 251 223 201 186 176 173 175 169 158 161 181 193 208 337 6 22 30 17 323 272 280 294 317 320 321 332 342 351 348 317 267 244 272 302 299 271 274
323 320 302 10 73 268 232 231 282 275 285 295 283 239 212 188 181 178 177 157 154 168 197 208 214 244 256 300 323 325 292 287 299 308 317 313 306 305 311 322 317 255 258 260 251 244 244 241 241
23 8 345 344 330 258 255 264 257 270 290 279 274 243 213 188 180 173 168 165 173 194 212 213 212 241 262 292 293 291 288 286 292 290 282 300 298 295 306 319 310 281 262 257 254 248 247 239 235
328 104 191 278 275 289 285 253 261 271 302 314 309 237 169 182 187 182 182 182 194 204 209 208 211 236 301 302 294 284 281 275 274 270 274 271 266 277 283 288 286 279 270 262 256 250 255 245 244
319 231 212 267 288 287 269 283 297 308 344 355 4 106 144 185 217 219 211 205 204 206 202 200 185 170 313 319 301 294 316 330 314 304 296 286 285 279 284 287 285 282 278 265 254 246 255 254 254
181 273 343 295 279 273 277 282 271 285 315 303 287 181 177 234 246 237 234 227 216 205 186 170 141 115 51 13 357 3 10 6 358 355 347 338 328 326 326 316 304 295 287 277 263 254 259 256 254
157 246 232 250 247 263 280 274 244 267 282 272 254 230 222 237 255 258 253 235 212 181 155 133 100 79 59 40 30 36 29 25 23 18 5 353 348 348 342 328 318 306 293 284 276 267 266 262 261
184 211 197 234 276 269 268 273 302 292 289 286 266 238 243 253 261 259 251 237 199 162 135 122 102 85 66 51 42 41 37 28 19 5 354 348 347 341 332 328 323 319 314 306 291 279 273 259 255